Regional Weather Roundup
Issued by NWS

Home | Current Version | Previous Version | Graphics & Text | Print | Product List | Glossary On
Versions: 1 2 3 4 5 6 7 8 9 10 11 12 13 14 15 16 17 18 19 20 21 22 23 24 25 26 27 28 29 30 31 32 33 34 35 36 37 38 39 40 41 42 43 44 45 46 47 48 49 50
000
ASUS43 KLOT 031022
RWRIL

ILLINOIS REGIONAL WEATHER ROUNDUP
NATIONAL WEATHER SERVICE CHICAGO/ROMEOVILLE IL
500 AM CDT THU SEP 03 2015

NOTE: "FAIR" INDICATES FEW OR NO CLOUDS BELOW 12,000 FEET WITH NO
SIGNIFICANT WEATHER AND/OR OBSTRUCTIONS TO VISIBILITY.

* THESE STATIONS ARE NOT UNDER NWS QUALITY CONTROL. THEY ALSO MAY NOT
  REPORT WEATHER SUCH AS PRECIPITATION OR FOG.

ILZ001-002-007-009-015-016-024-031100-
NORTHWEST ILLINOIS

CITY           SKY/WX    TMP DP  RH WIND       PRES   REMARKS
MOLINE         PTCLDY    73  68  84 CALM      29.94S
STERLING*      PTCLDY    68  66  94 CALM      29.94S
SAVANNA*       CLEAR     70  67  91 S3        29.94S
$$

ILZ003-004-008-010-011-017-018-031100-
NORTH CENTRAL ILLINOIS

CITY           SKY/WX    TMP DP  RH WIND       PRES   REMARKS
ROCKFORD       PTCLDY    71  67  87 S7        29.96S
FREEPORT*      CLEAR     70  67  90 SW8       29.96S
ROCHELLE*      CLEAR     66  66  98 CALM      29.97R FOG
DE KALB*       PTCLDY    68  66  95 CALM      29.98S
PERU*          CLEAR     70  67  89 S7        29.97S
$$

ILZ005-006-012>014-019>023-031100-
NORTHEAST ILLINOIS

CITY           SKY/WX    TMP DP  RH WIND       PRES   REMARKS
CHICAGO-OHARE  PTCLDY    73  69  87 SW5       29.95S
CHICAGO-MIDWAY PTCLDY    76  67  73 SW6       29.96S
AURORA         CLEAR     69  67  93 S3        29.97S FOG
LANSING*       CLEAR     68  66  92 S3        29.98R
JOLIET*        CLEAR     70  68  95 CALM      29.97S FOG
WAUKEGAN       MOCLDY    73  68  84 SW5       29.94S
DUPAGE AIRPORT MOCLDY    70  67  90 S5        29.96S
KANKAKEE*      PTCLDY    69  67  94 CALM      29.99S
WHEELING       PTCLDY    75  67  76 S5        29.96S
MORRIS*        CLEAR     69  66  89 SW5       29.96S
ROMEOVILLE*    CLEAR     68  65  91 SW5       29.97S
NORTHERLY ISL    N/A     77  66  68 SW3         N/A
$$

LMZ740>746-031100-
SOUTHERN LAKE MICHIGAN

STATION/POSITION SKY/WX   TEMP    WIND        PRES    VSBY  WAVE
                          AIR SEA DIR/SP/G                  HT/PER
                          (F)     (DEG/KT/KT) (MB)    (MI)  (FT/S)
SOUTHERN BUOY              74 71  210/ 10/ 10 1013.2R         0
WILMETTE HARBOR            68 63   20/  6/  6   N/A           0
HARRISON CRIB              79     240/ 15/ 21   N/A
BURNHAM HARBOR             76     250/  4/  8   N/A
CALUMET HARBOR             76     220/  3/  5   N/A
BURNS HARBOR               76     220/  7/ 10 1015.2R
MICHIGAN CITY              75     190/  9/ 10   N/A
MICHIGAN CITY 6N           74 73  230/  6/  6   N/A           1
ST. JOSEPH                 74 73  270/ 10/ 10   N/A           1
$$

ILZ025>027-034>036-040-047-049-050-058-095>099-031100-
WEST-CENTRAL ILLINOIS

CITY           SKY/WX    TMP DP  RH WIND       PRES   REMARKS
QUINCY         PTCLDY    72  67  84 S6        29.97S
GALESBURG*     CLEAR     69  66  91 S3        29.97R
MACOMB*        CLEAR     70  67  92 SW3       29.99R
JACKSONVILLE*  CLEAR     73  69  87 S5        29.98R
PITTSFIELD*    PTCLDY    74  69  85 CALM      29.99S
$$

ILZ028>032-037-038-041>044-048-051>054-059>061-031100-
CENTRAL ILLINOIS

CITY           SKY/WX    TMP DP  RH WIND       PRES   REMARKS
PONTIAC        PTCLDY    69  68  98 CALM      29.99S FOG
BLOOMINGTON    PTCLDY    71  69  93 SW5       30.01R
DECATUR        CLEAR     71  66  84 SW5       30.00R
PEORIA         CLEAR     72  66  81 S3        29.98R
LACON*         CLEAR     69  66  92 CALM      29.96S
LINCOLN*       CLEAR     69  66  90 CALM      29.99R FOG
SPRINGFIELD    CLEAR     72  68  87 SW3       29.99R
TAYLORVILLE    CLEAR     68  66  94 CALM      30.00S
$$

ILZ033-039-045-046-055>057-062-063-031100-
EAST-CENTRAL ILLINOIS

CITY           SKY/WX    TMP DP  RH WIND       PRES   REMARKS
CHAMPAIGN      CLEAR     69  66  90 SW5       30.01R
RANTOUL*       CLEAR     71  68  91 CALM      30.00S
MATTOON        CLEAR     72  66  81 S5        30.01R
PARIS*         CLEAR     66  65  97 CALM      30.02S
$$

ILZ079-100>102-031100-
SOUTHWEST ILLINOIS

CITY           SKY/WX    TMP DP  RH WIND       PRES   REMARKS
ALTON          CLEAR     68  67  97 CALM      30.00R
BELLEVILLE     CLEAR     70  70 100 SE1       29.99R
CAHOKIA*       CLEAR     70  67  90 CALM      29.99S
SPARTA*        CLEAR     74  68  83 S5        30.01S
$$

ILZ064>066-069>071-074>076-080>082-084>086-088>090-092>094-031100-
SOUTH-CENTRAL ILLINOIS

CITY           SKY/WX    TMP DP  RH WIND       PRES   REMARKS
CARBONDALE     FOG       67  65  93 CALM      30.01S VSB 1/2
CAIRO*         FOG       65  65 100 CALM      30.01S VSB 3/4
EFFINGHAM*     CLEAR     67  65  92 CALM      30.02S FOG
MARION         CLEAR     72  68  88 CALM      30.02S
MT. VERNON     CLEAR     64  61  88 CALM      30.02S
CENTRALIA*     CLEAR     70  69  98 S3        30.00S
SALEM*         CLEAR     68  65  92 CALM      30.01R
METROPOLIS*    CLEAR     65  65 100 CALM      30.02R FOG
$$

ILZ067-068-072-073-078-083-087-091-031100-
SOUTHEAST ILLINOIS

CITY           SKY/WX    TMP DP  RH WIND       PRES   REMARKS
LAWRENCEVILLE  FOG       67  66  97 CALM      30.02R VSB 1/4
FLORA*         CLEAR     65  64  96 CALM      30.02R FOG
FAIRFIELD*     CLEAR     66  65  98 CALM      30.01R FOG
HARRISBURG*    CLOUDY    66  65  98 CALM      30.02R FOG
ROBINSON*      CLEAR     64  63  97 CALM      30.02S FOG
CARMI*         FOG       65  65 100 CALM      30.01R VSB 1/4
$$

ABBREVIATIONS USED IN REMARKS
   TC - TEMPERATURE IN CELSIUS
  WCI - WIND CHILL INDEX
   HX - HEAT INDEX
  VSB - VISIBILITY
$$



USA.gov is the U.S. government's official web portal to all federal, state and local government web resources and services.